TimeEST,TemperatureF,Dew PointF,Humidity,Sea Level PressureIn,VisibilityMPH,Wind Direction,Wind SpeedMPH,Gust SpeedMPH,PrecipitationIn,Events,Conditions,WindDirDegrees,DateUTC
12:53 AM,28.9,25.0,85,30.16,10.0,Calm,Calm,-,N/A,,Clear,0,2012-11-21 05:53:00
1:53 AM,28.9,25.0,85,30.16,8.0,Calm,Calm,-,N/A,,Clear,0,2012-11-21 06:53:00
2:53 AM,30.0,26.1,85,30.17,9.0,Calm,Calm,-,N/A,,Clear,0,2012-11-21 07:53:00
3:53 AM,30.0,26.1,85,30.18,8.0,Calm,Calm,-,N/A,,Clear,0,2012-11-21 08:53:00
4:53 AM,30.0,26.1,85,30.19,8.0,Calm,Calm,-,N/A,,Clear,0,2012-11-21 09:53:00
5:53 AM,30.0,26.1,85,30.20,8.0,Calm,Calm,-,N/A,,Clear,0,2012-11-21 10:53:00
6:53 AM,28.9,26.1,89,30.22,7.0,Calm,Calm,-,N/A,,Clear,0,2012-11-21 11:53:00
7:53 AM,32.0,28.0,85,30.24,7.0,Calm,Calm,-,N/A,,Clear,0,2012-11-21 12:53:00
8:53 AM,35.1,28.9,78,30.24,8.0,Calm,Calm,-,N/A,,Clear,0,2012-11-21 13:53:00
9:53 AM,42.1,30.9,65,30.24,10.0,NNE,5.8,-,N/A,,Clear,20,2012-11-21 14:53:00
10:53 AM,46.0,30.9,56,30.23,10.0,NNE,4.6,-,N/A,,Clear,30,2012-11-21 15:53:00
11:53 AM,48.9,28.9,46,30.20,10.0,Calm,Calm,-,N/A,,Clear,0,2012-11-21 16:53:00
12:53 PM,50.0,27.0,41,30.18,10.0,Calm,Calm,-,N/A,,Clear,0,2012-11-21 17:53:00
1:53 PM,52.0,25.0,35,30.17,10.0,NNW,5.8,-,N/A,,Clear,330,2012-11-21 18:53:00
2:53 PM,52.0,26.1,37,30.17,10.0,NW,5.8,-,N/A,,Clear,320,2012-11-21 19:53:00
3:53 PM,51.1,25.0,36,30.18,10.0,NNW,3.5,-,N/A,,Clear,330,2012-11-21 20:53:00
5:53 PM,37.9,26.1,62,30.20,10.0,Calm,Calm,-,N/A,,Clear,0,2012-11-21 22:53:00
6:53 PM,35.1,27.0,72,30.23,10.0,Calm,Calm,-,N/A,,Clear,0,2012-11-21 23:53:00
7:53 PM,33.1,25.0,72,30.24,10.0,Calm,Calm,-,N/A,,Clear,0,2012-11-22 00:53:00
8:53 PM,30.0,23.0,75,30.25,10.0,Calm,Calm,-,N/A,,Clear,0,2012-11-22 01:53:00
9:53 PM,28.9,24.1,82,30.24,10.0,Calm,Calm,-,N/A,,Clear,0,2012-11-22 02:53:00
10:53 PM,28.9,23.0,78,30.25,10.0,Calm,Calm,-,N/A,,Clear,0,2012-11-22 03:53:00
11:53 PM,28.0,23.0,81,30.25,10.0,Calm,Calm,-,N/A,,Clear,0,2012-11-22 04:53:00